| time (UTC) | temp C | wind direction | speed KPH | gust KPH | rain 1hr cm | rain 24hr cm | rain mn cm | humidity % | barometer mb |
| 20260906123053 | 19 | 338 | 3.2 | 12.9 | 0.00 | 0.00 | 0.00 | 80 | 1008.6 |
| 20260906122548 | 19 | 30 | 8.0 | 9.7 | 0.00 | 0.00 | 0.00 | 81 | 1008.6 |
| 20260906122044 | 19 | 4 | 6.4 | 8.0 | 0.00 | 0.00 | 0.00 | 82 | 1008.5 |
| 20260906121802 | 18 | 19 | 9.7 | 9.7 | 0.00 | 0.00 | 0.00 | 82 | 1008.6 |
| 20260906121255 | 18 | 43 | 6.4 | 9.7 | 0.00 | 0.00 | 0.00 | 83 | 1008.5 |
| 20260906120532 | 18 | 47 | 4.8 | 6.4 | 0.00 | 0.00 | 0.00 | 84 | 1008.6 |
| 20260906120029 | 18 | 50 | 4.8 | 6.4 | 0.00 | 0.00 | 0.00 | 85 | 1008.4 |
| 20260906115524 | 17 | 39 | 3.2 | 6.4 | 0.00 | 0.00 | 0.00 | 86 | 1008.6 |
| 20260906115242 | 17 | 11 | 6.4 | 8.0 | 0.00 | 0.00 | 0.00 | 88 | 1008.3 |
| 20260906114517 | 16 | 8 | 3.2 | 9.7 | 0.00 | 0.00 | 0.00 | 91 | 1008.3 |
| 20260906114013 | 16 | 54 | 4.8 | 6.4 | 0.00 | 0.00 | 0.00 | 96 | 1008.3 |
| 20260906113508 | 15 | 68 | 3.2 | 4.8 | 0.00 | 0.00 | 0.00 | 97 | 1008.1 |
| 20260906113005 | 15 | 125 | 3.2 | 6.4 | 0.00 | 0.00 | 0.00 | 97 | 1008.3 |
| 20260906112500 | 15 | 60 | 3.2 | 6.4 | 0.00 | 0.00 | 0.00 | 97 | 1008.3 |
| 20260906111957 | 15 | 61 | 3.2 | 8.0 | 0.00 | 0.00 | 0.00 | 97 | 1008.2 |
| 20260906111453 | 15 | 73 | 3.2 | 9.7 | 0.00 | 0.00 | 0.00 | 97 | 1008.2 |
| 20260906110948 | 15 | 31 | 8.0 | 9.7 | 0.00 | 0.00 | 0.00 | 97 | 1007.8 |
| 20260906110445 | 15 | 62 | 4.8 | 12.9 | 0.00 | 0.00 | 0.00 | 96 | 1007.8 |
| 20260906105940 | 15 | 328 | 4.8 | 11.3 | 0.00 | 0.00 | 0.00 | 96 | 1007.9 |
| 20260906105436 | 15 | 127 | 4.8 | 6.4 | 0.00 | 0.00 | 0.00 | 96 | 1007.7 |
| 20260906104428 | 15 | 126 | 3.2 | 9.7 | 0.00 | 0.00 | 0.00 | 96 | 1007.6 |
| 20260906103924 | 15 | 85 | 1.6 | 8.0 | 0.00 | 0.00 | 0.00 | 96 | 1007.5 |
| 20260906103420 | 15 | 351 | 8.0 | 9.7 | 0.00 | 0.00 | 0.00 | 96 | 1007.4 |
| 20260906102916 | 15 | 41 | 6.4 | 8.0 | 0.00 | 0.00 | 0.00 | 96 | 1007.4 |
| 20260906102633 | 15 | 58 | 4.8 | 8.0 | 0.00 | 0.00 | 0.00 | 96 | 1007.2 |
| 20260906102355 | 15 | 75 | 8.0 | 9.7 | 0.00 | 0.00 | 0.00 | 96 | 1007.2 |
| 20260906101404 | 15 | 139 | 6.4 | 6.4 | 0.00 | 0.00 | 0.00 | 96 | 1007.1 |
| 20260906100900 | 15 | 97 | 1.6 | 4.8 | 0.00 | 0.00 | 0.00 | 96 | 1007.2 |
| 20260906100357 | 15 | 92 | 3.2 | 8.0 | 0.00 | 0.00 | 0.00 | 96 | 1007.0 |
| 20260906095852 | 15 | 123 | 4.8 | 8.0 | 0.00 | 0.00 | 0.00 | 96 | 1007.1 |
| 20260906095348 | 15 | 95 | 8.0 | 9.7 | 0.00 | 0.00 | 0.00 | 96 | 1006.8 |
| 20260906094844 | 15 | 82 | 3.2 | 9.7 | 0.00 | 0.00 | 0.00 | 96 | 1007.0 |
| 20260906094341 | 15 | 128 | 6.4 | 9.7 | 0.00 | 0.00 | 0.00 | 96 | 1006.8 |
| 20260906094057 | 15 | 45 | 3.2 | 9.7 | 0.00 | 0.00 | 0.00 | 96 | 1006.8 |
| 20260906093332 | 15 | 4 | 6.4 | 11.3 | 0.00 | 0.00 | 0.00 | 96 | 1006.8 |
| 20260906092828 | 15 | 52 | 6.4 | 8.0 | 0.00 | 0.00 | 0.00 | 96 | 1006.8 |
| 20260906092324 | 15 | 85 | 3.2 | 6.4 | 0.00 | 0.00 | 0.00 | 96 | 1006.8 |
| 20260906091821 | 15 | 78 | 8.0 | 9.7 | 0.00 | 0.00 | 0.00 | 95 | 1006.8 |
| 20260906091316 | 15 | 176 | 3.2 | 6.4 | 0.00 | 0.00 | 0.00 | 96 | 1006.8 |
| 20260906090812 | 15 | 105 | 6.4 | 9.7 | 0.00 | 0.00 | 0.00 | 96 | 1006.5 |
| 20260906090308 | 15 | 76 | 1.6 | 4.8 | 0.00 | 0.00 | 0.00 | 95 | 1006.6 |
| 20260906085804 | 15 | 50 | 4.8 | 8.0 | 0.00 | 0.00 | 0.00 | 95 | 1006.5 |
| 20260906085300 | 15 | 161 | 4.8 | 8.0 | 0.00 | 0.00 | 0.00 | 95 | 1006.4 |
| 20260906084253 | 15 | 89 | 1.6 | 3.2 | 0.00 | 0.00 | 0.00 | 95 | 1006.4 |
| 20260906083748 | 15 | 98 | 3.2 | 11.3 | 0.00 | 0.00 | 0.00 | 95 | 1006.4 |
| 20260906083244 | 15 | 144 | 4.8 | 8.0 | 0.00 | 0.00 | 0.00 | 95 | 1006.6 |
| 20260906082740 | 15 | 108 | 0.0 | 8.0 | 0.00 | 0.00 | 0.00 | 95 | 1006.4 |
| 20260906082458 | 15 | 99 | 8.0 | 12.9 | 0.00 | 0.00 | 0.00 | 95 | 1006.4 |
| 20260906081951 | 15 | 17 | 6.4 | 9.7 | 0.00 | 0.00 | 0.00 | 95 | 1006.4 |
| 20260906081228 | 16 | 140 | 3.2 | 6.4 | 0.00 | 0.00 | 0.00 | 95 | 1006.3 |
| 20260906080724 | 16 | 86 | 3.2 | 4.8 | 0.00 | 0.00 | 0.00 | 94 | 1006.6 |
| 20260906080220 | 16 | 60 | 3.2 | 3.2 | 0.00 | 0.00 | 0.00 | 95 | 1006.3 |
| 20260906075716 | 16 | 77 | 1.6 | 3.2 | 0.00 | 0.00 | 0.00 | 95 | 1006.3 |
| 20260906075212 | 16 | 73 | 0.0 | 1.6 | 0.00 | 0.00 | 0.00 | 94 | 1006.1 |
| 20260906075154 | 16 | 80 | 1.6 | 3.2 | 0.00 | 0.00 | 0.00 | 94 | 1006.2 |
| 20260906074205 | 16 | 89 | 0.0 | 3.2 | 0.00 | 0.00 | 0.00 | 94 | 1006.1 |
| 20260906073700 | 16 | 64 | 1.6 | 1.6 | 0.00 | 0.00 | 0.00 | 94 | 1006.1 |
| 20260906073157 | 16 | 92 | 1.6 | 3.2 | 0.00 | 0.00 | 0.00 | 94 | 1006.1 |
| 20260906072652 | 16 | 88 | 1.6 | 3.2 | 0.00 | 0.00 | 0.00 | 93 | 1006.1 |
| 20260906072148 | 16 | 89 | 1.6 | 3.2 | 0.00 | 0.00 | 0.00 | 93 | 1006.3 |
| 20260906071644 | 16 | 59 | 1.6 | 3.2 | 0.00 | 0.00 | 0.00 | 93 | 1006.0 |
| 20260906071140 | 16 | 78 | 1.6 | 3.2 | 0.00 | 0.00 | 0.00 | 93 | 1006.0 |
| 20260906070636 | 16 | 109 | 1.6 | 3.2 | 0.00 | 0.00 | 0.00 | 93 | 1005.9 |
| 20260906070132 | 16 | 69 | 3.2 | 3.2 | 0.00 | 0.00 | 0.00 | 92 | 1006.0 |
| 20260906070114 | 16 | 105 | 1.6 | 3.2 | 0.00 | 0.00 | 0.00 | 92 | 1005.9 |
| 20260906065124 | 16 | 76 | 1.6 | 3.2 | 0.00 | 0.00 | 0.00 | 92 | 1006.0 |
| 20260906064621 | 16 | 60 | 1.6 | 3.2 | 0.00 | 0.00 | 0.00 | 92 | 1006.0 |
| 20260906064117 | 16 | 123 | 1.6 | 3.2 | 0.00 | 0.00 | 0.00 | 92 | 1006.2 |
| 20260906063612 | 16 | 89 | 0.0 | 3.2 | 0.00 | 0.00 | 0.00 | 92 | 1006.1 |
| 20260906063109 | 16 | 101 | 1.6 | 3.2 | 0.00 | 0.00 | 0.00 | 92 | 1006.2 |
| 20260906062604 | 16 | 64 | 1.6 | 3.2 | 0.00 | 0.00 | 0.00 | 93 | 1006.2 |
| 20260906062100 | 16 | 85 | 1.6 | 3.2 | 0.00 | 0.00 | 0.00 | 93 | 1006.2 |
| 20260906061557 | 16 | 63 | 0.0 | 3.2 | 0.00 | 0.00 | 0.00 | 93 | 1006.1 |
| 20260906061052 | 16 | 89 | 0.0 | 3.2 | 0.00 | 0.00 | 0.00 | 93 | 1006.2 |
| 20260906060548 | 16 | 123 | 0.0 | 3.2 | 0.00 | 0.00 | 0.00 | 93 | 1006.1 |
| 20260906060045 | 16 | 98 | 0.0 | 3.2 | 0.00 | 0.00 | 0.00 | 93 | 1006.2 |
| 20260906055540 | 16 | 80 | 1.6 | 1.6 | 0.00 | 0.00 | 0.00 | 92 | 1006.1 |
| 20260906055036 | 16 | 66 | 1.6 | 3.2 | 0.00 | 0.00 | 0.00 | 92 | 1006.2 |
| 20260906054532 | 16 | 84 | 0.0 | 3.2 | 0.00 | 0.00 | 0.00 | 92 | 1006.0 |
| 20260906054028 | 17 | 92 | 1.6 | 1.6 | 0.00 | 0.00 | 0.00 | 92 | 1006.2 |
| 20260906053524 | 17 | 68 | 1.6 | 3.2 | 0.00 | 0.00 | 0.00 | 92 | 1006.2 |
| 20260906053021 | 17 | 68 | 0.0 | 3.2 | 0.00 | 0.00 | 0.00 | 92 | 1006.2 |
| 20260906052516 | 17 | 96 | 1.6 | 3.2 | 0.00 | 0.00 | 0.00 | 92 | 1006.4 |
| 20260906052012 | 17 | 86 | 0.0 | 3.2 | 0.00 | 0.00 | 0.00 | 92 | 1006.3 |
| 20260906051508 | 17 | 93 | 0.0 | 3.2 | 0.00 | 0.00 | 0.00 | 92 | 1006.4 |
| 20260906051004 | 17 | 132 | 1.6 | 3.2 | 0.00 | 0.00 | 0.00 | 92 | 1006.3 |
| 20260906050501 | 17 | 86 | 1.6 | 3.2 | 0.00 | 0.00 | 0.00 | 92 | 1006.4 |
| 20260906045957 | 17 | 83 | 1.6 | 3.2 | 0.00 | 0.00 | 0.00 | 92 | 1006.5 |
| 20260906045452 | 17 | 99 | 0.0 | 1.6 | 0.00 | 0.00 | 0.00 | 91 | 1006.4 |
| 20260906045207 | 17 | 92 | 1.6 | 1.6 | 0.00 | 0.00 | 0.00 | 91 | 1006.7 |
| 20260906044444 | 17 | 77 | 1.6 | 1.6 | 0.00 | 0.00 | 0.00 | 91 | 1006.4 |
| 20260906043941 | 17 | 91 | 1.6 | 1.6 | 0.00 | 0.00 | 0.00 | 91 | 1006.6 |
| 20260906043436 | 17 | 81 | 1.6 | 3.2 | 0.00 | 0.00 | 0.00 | 91 | 1006.6 |
| 20260906042932 | 17 | 62 | 3.2 | 3.2 | 0.00 | 0.00 | 0.00 | 90 | 1006.5 |
| 20260906042428 | 17 | 113 | 0.0 | 1.6 | 0.00 | 0.00 | 0.00 | 90 | 1006.6 |
| 20260906042409 | 17 | 85 | 1.6 | 3.2 | 0.00 | 0.00 | 0.00 | 90 | 1006.4 |
| 20260906041418 | 17 | 84 | 1.6 | 3.2 | 0.00 | 0.00 | 0.00 | 90 | 1006.6 |
| 20260906040916 | 17 | 79 | 1.6 | 3.2 | 0.00 | 0.00 | 0.00 | 90 | 1006.6 |
| 20260906040416 | 17 | 103 | 1.6 | 3.2 | 0.00 | 0.00 | 0.00 | 90 | 1006.6 |
| 20260906035908 | 17 | 89 | 1.6 | 3.2 | 0.00 | 0.00 | 0.00 | 90 | 1006.5 |
| 20260906035404 | 17 | 106 | 1.6 | 3.2 | 0.00 | 0.00 | 0.00 | 90 | 1006.5 |
| 20260906034900 | 17 | 82 | 1.6 | 3.2 | 0.00 | 0.00 | 0.00 | 89 | 1006.4 |
| 20260906034618 | 17 | 91 | 0.0 | 1.6 | 0.00 | 0.00 | 0.00 | 89 | 1006.6 |
| 20260906033852 | 18 | 102 | 1.6 | 1.6 | 0.00 | 0.00 | 0.00 | 89 | 1006.4 |
| 20260906033608 | 17 | 106 | 1.6 | 3.2 | 0.00 | 0.00 | 0.00 | 89 | 1006.6 |
| 20260906032845 | 18 | 89 | 0.0 | 1.6 | 0.00 | 0.00 | 0.00 | 87 | 1006.7 |
| 20260906032236 | 18 | 89 | 1.6 | 3.2 | 0.00 | 0.00 | 0.00 | 87 | 1006.6 |
| 20260906031732 | 18 | 85 | 1.6 | 3.2 | 0.00 | 0.00 | 0.00 | 87 | 1006.8 |
| 20260906031228 | 18 | 94 | 0.0 | 1.6 | 0.00 | 0.00 | 0.00 | 86 | 1006.7 |
| 20260906030725 | 18 | 81 | 0.0 | 1.6 | 0.00 | 0.00 | 0.00 | 86 | 1006.6 |
| 20260906030220 | 18 | 80 | 0.0 | 1.6 | 0.00 | 0.00 | 0.00 | 86 | 1006.4 |
| 20260906025716 | 18 | 94 | 1.6 | 3.2 | 0.00 | 0.00 | 0.00 | 87 | 1006.3 |
| 20260906025212 | 18 | 89 | 0.0 | 1.6 | 0.00 | 0.00 | 0.00 | 86 | 1006.5 |
| 20260906024931 | 18 | 86 | 0.0 | 1.6 | 0.00 | 0.00 | 0.00 | 85 | 1006.3 |
| 20260906024423 | 18 | 93 | 0.0 | 1.6 | 0.00 | 0.00 | 0.00 | 84 | 1006.5 |
| 20260906023700 | 19 | 72 | 1.6 | 1.6 | 0.00 | 0.00 | 0.00 | 84 | 1006.6 |
| 20260906023157 | 19 | 113 | 0.0 | 1.6 | 0.00 | 0.00 | 0.00 | 84 | 1006.4 |
| 20260906022652 | 19 | 89 | 0.0 | 1.6 | 0.00 | 0.00 | 0.00 | 83 | 1006.3 |
| 20260906022407 | 19 | 99 | 1.6 | 3.2 | 0.00 | 0.00 | 0.00 | 83 | 1006.2 |
| 20260906021645 | 19 | 101 | 0.0 | 1.6 | 0.00 | 0.00 | 0.00 | 82 | 1006.5 |
| 20260906021140 | 20 | 75 | 0.0 | 1.6 | 0.00 | 0.00 | 0.00 | 81 | 1006.4 |
| 20260906020636 | 20 | 76 | 0.0 | 1.6 | 0.00 | 0.00 | 0.00 | 80 | 1006.5 |
| 20260906020132 | 20 | 74 | 0.0 | 1.6 | 0.00 | 0.00 | 0.00 | 80 | 1006.4 |
| 20260906015629 | 20 | 108 | 1.6 | 1.6 | 0.00 | 0.00 | 0.00 | 79 | 1006.3 |
| 20260906015124 | 20 | 85 | 0.0 | 1.6 | 0.00 | 0.00 | 0.00 | 79 | 1006.2 |
| 20260906014620 | 20 | 87 | 0.0 | 1.6 | 0.00 | 0.00 | 0.00 | 78 | 1006.2 |
| 20260906014116 | 20 | 122 | 0.0 | 1.6 | 0.00 | 0.00 | 0.00 | 77 | 1006.4 |
| 20260906013612 | 21 | 130 | 0.0 | 1.6 | 0.00 | 0.00 | 0.00 | 76 | 1006.0 |
| 20260906013108 | 21 | 101 | 0.0 | 1.6 | 0.00 | 0.00 | 0.00 | 75 | 1006.1 |
| 20260906012604 | 21 | 110 | 0.0 | 1.6 | 0.00 | 0.00 | 0.00 | 74 | 1006.1 |
| 20260906012321 | 21 | 66 | 0.0 | 0.0 | 0.00 | 0.00 | 0.00 | 73 | 1006.1 |
| 20260906011557 | 21 | 59 | 0.0 | 1.6 | 0.00 | 0.00 | 0.00 | 72 | 1006.0 |
| 20260906011053 | 22 | 66 | 0.0 | 0.0 | 0.00 | 0.00 | 0.00 | 72 | 1005.9 |
| 20260906010548 | 22 | 54 | 0.0 | 1.6 | 0.00 | 0.00 | 0.00 | 70 | 1005.8 |
| 20260906010044 | 22 | 89 | 0.0 | 0.0 | 0.00 | 0.00 | 0.00 | 69 | 1005.7 |
| 20260906005541 | 22 | 75 | 0.0 | 0.0 | 0.00 | 0.00 | 0.00 | 68 | 1005.8 |
| 20260906005524 | 22 | 333 | 0.0 | 0.0 | 0.00 | 0.00 | 0.00 | 68 | 1005.7 |
| 20260906004532 | 23 | 195 | 0.0 | 0.0 | 0.00 | 0.00 | 0.00 | 67 | 1005.8 |
| 20260906004029 | 23 | 224 | 0.0 | 0.0 | 0.00 | 0.00 | 0.00 | 67 | 1005.6 |
| 20260906003745 | 23 | 271 | 0.0 | 0.0 | 0.00 | 0.00 | 0.00 | 66 | 1005.5 |
| 20260906002517 | 23 | 284 | 0.0 | 3.2 | 0.00 | 0.00 | 0.00 | 64 | 1005.5 |
| 20260906002012 | 23 | 166 | 0.0 | 0.0 | 0.00 | 0.00 | 0.00 | 64 | 1005.4 |
| 20260906001508 | 23 | 255 | 0.0 | 0.0 | 0.00 | 0.00 | 0.00 | 64 | 1005.5 |
| 20260906001004 | 24 | 104 | 0.0 | 0.0 | 0.00 | 0.00 | 0.00 | 63 | 1005.3 |
| 20260906000723 | 24 | 254 | 0.0 | 1.6 | 0.00 | 0.00 | 0.00 | 62 | 1005.2 |
| 20260905235957 | 24 | 224 | 0.0 | 0.0 | 0.00 | 0.00 | 0.00 | 63 | 1005.3 |
| 20260905235452 | 25 | 19 | 0.0 | 3.2 | 0.00 | 0.00 | 0.00 | 61 | 1005.3 |
| 20260905234948 | 25 | 147 | 0.0 | 3.2 | 0.00 | 0.00 | 0.00 | 62 | 1005.3 |
| 20260905234445 | 25 | 58 | 1.6 | 4.8 | 0.00 | 0.00 | 0.00 | 61 | 1005.1 |
| 20260905233940 | 25 | 315 | 0.0 | 3.2 | 0.00 | 0.00 | 0.00 | 62 | 1004.9 |
| 20260905233436 | 25 | 282 | 0.0 | 1.6 | 0.00 | 0.00 | 0.00 | 61 | 1005.1 |
| 20260905232932 | 25 | 306 | 3.2 | 6.4 | 0.00 | 0.00 | 0.00 | 61 | 1005.1 |
| 20260905232650 | 25 | 10 | 3.2 | 6.4 | 0.00 | 0.00 | 0.00 | 60 | 1004.7 |
| 20260905231925 | 25 | 293 | 0.0 | 1.6 | 0.00 | 0.00 | 0.00 | 62 | 1004.8 |
| 20260905231639 | 26 | 307 | 0.0 | 4.8 | 0.00 | 0.00 | 0.00 | 60 | 1004.9 |
| 20260905230916 | 26 | 286 | 1.6 | 3.2 | 0.00 | 0.00 | 0.00 | 60 | 1004.9 |
| 20260905230412 | 26 | 285 | 0.0 | 3.2 | 0.00 | 0.00 | 0.00 | 58 | 1004.8 |
| 20260905225908 | 26 | 288 | 3.2 | 3.2 | 0.00 | 0.00 | 0.00 | 58 | 1005.0 |
| 20260905225404 | 26 | 337 | 1.6 | 3.2 | 0.00 | 0.00 | 0.00 | 58 | 1004.9 |
| 20260905225345 | 26 | 44 | 0.0 | 6.4 | 0.00 | 0.00 | 0.00 | 58 | 1004.8 |
| 20260905224357 | 26 | 233 | 0.0 | 3.2 | 0.00 | 0.00 | 0.00 | 58 | 1004.9 |
| 20260905223852 | 26 | 133 | 1.6 | 6.4 | 0.00 | 0.00 | 0.00 | 59 | 1004.7 |
| 20260905223348 | 26 | 5 | 4.8 | 8.0 | 0.00 | 0.00 | 0.00 | 59 | 1004.6 |
| 20260905222844 | 26 | 310 | 3.2 | 4.8 | 0.00 | 0.00 | 0.00 | 58 | 1004.6 |
| 20260905222340 | 26 | 84 | 0.0 | 3.2 | 0.00 | 0.00 | 0.00 | 58 | 1004.6 |
| 20260905221836 | 26 | 288 | 1.6 | 4.8 | 0.00 | 0.00 | 0.00 | 59 | 1004.6 |
| 20260905221332 | 26 | 36 | 1.6 | 6.4 | 0.00 | 0.00 | 0.00 | 60 | 1004.5 |
| 20260905220829 | 26 | 62 | 0.0 | 8.0 | 0.00 | 0.00 | 0.00 | 59 | 1004.4 |
| 20260905220325 | 26 | 22 | 3.2 | 3.2 | 0.00 | 0.00 | 0.00 | 59 | 1004.5 |
| 20260905215820 | 27 | 327 | 6.4 | 6.4 | 0.00 | 0.00 | 0.00 | 58 | 1004.3 |
| 20260905215316 | 27 | 297 | 3.2 | 4.8 | 0.00 | 0.00 | 0.00 | 59 | 1004.2 |
| 20260905214813 | 27 | 303 | 0.0 | 4.8 | 0.00 | 0.00 | 0.00 | 59 | 1004.3 |
| 20260905214308 | 27 | 7 | 1.6 | 3.2 | 0.00 | 0.00 | 0.00 | 58 | 1004.3 |
| 20260905213804 | 27 | 332 | 1.6 | 4.8 | 0.00 | 0.00 | 0.00 | 57 | 1004.0 |
| 20260905213300 | 27 | 325 | 3.2 | 6.4 | 0.00 | 0.00 | 0.00 | 58 | 1004.0 |
| 20260905212757 | 27 | 63 | 3.2 | 6.4 | 0.00 | 0.00 | 0.00 | 58 | 1004.0 |
| 20260905212252 | 27 | 290 | 3.2 | 9.7 | 0.00 | 0.00 | 0.00 | 58 | 1003.8 |
| 20260905211749 | 27 | 340 | 0.0 | 6.4 | 0.00 | 0.00 | 0.00 | 57 | 1003.9 |
| 20260905211504 | 27 | 289 | 3.2 | 4.8 | 0.00 | 0.00 | 0.00 | 58 | 1003.8 |
| 20260905210740 | 27 | 354 | 3.2 | 12.9 | 0.00 | 0.00 | 0.00 | 58 | 1003.8 |
| 20260905210236 | 27 | 286 | 0.0 | 3.2 | 0.00 | 0.00 | 0.00 | 59 | 1004.0 |
| 20260905205732 | 27 | 333 | 0.0 | 3.2 | 0.00 | 0.00 | 0.00 | 58 | 1003.7 |
| 20260905205228 | 27 | 322 | 0.0 | 3.2 | 0.00 | 0.00 | 0.00 | 57 | 1003.8 |
| 20260905204945 | 27 | 321 | 3.2 | 4.8 | 0.00 | 0.00 | 0.00 | 58 | 1003.8 |
| 20260905204221 | 27 | 51 | 8.0 | 14.5 | 0.00 | 0.00 | 0.00 | 57 | 1004.0 |
| 20260905204204 | 27 | 5 | 1.6 | 6.4 | 0.00 | 0.00 | 0.00 | 58 | 1004.0 |
| 20260905203212 | 27 | 352 | 1.6 | 8.0 | 0.00 | 0.00 | 0.00 | 59 | 1004.0 |
| 20260905202709 | 27 | 356 | 8.0 | 9.7 | 0.00 | 0.00 | 0.00 | 59 | 1004.0 |
| 20260905202205 | 27 | 52 | 3.2 | 4.8 | 0.00 | 0.00 | 0.00 | 58 | 1004.3 |
| 20260905201922 | 27 | 261 | 0.0 | 3.2 | 0.00 | 0.00 | 0.00 | 61 | 1004.0 |
| 20260905201157 | 26 | 285 | 0.0 | 6.4 | 0.00 | 0.00 | 0.00 | 60 | 1004.2 |
| 20260905200653 | 27 | 356 | 9.7 | 9.7 | 0.00 | 0.00 | 0.00 | 61 | 1004.2 |
| 20260905200409 | 26 | 351 | 1.6 | 4.8 | 0.00 | 0.00 | 0.00 | 60 | 1004.2 |
| 20260905195644 | 26 | 292 | 0.0 | 3.2 | 0.00 | 0.00 | 0.00 | 62 | 1004.1 |
| 20260905195140 | 26 | 352 | 3.2 | 6.4 | 0.00 | 0.00 | 0.00 | 61 | 1004.4 |
| 20260905194636 | 26 | 327 | 3.2 | 8.0 | 0.00 | 0.00 | 0.00 | 61 | 1004.2 |
| 20260905194132 | 27 | 40 | 3.2 | 3.2 | 0.00 | 0.00 | 0.00 | 61 | 1004.2 |
| 20260905193628 | 26 | 261 | 0.0 | 3.2 | 0.00 | 0.00 | 0.00 | 62 | 1004.3 |
| 20260905193124 | 27 | 318 | 4.8 | 4.8 | 0.00 | 0.00 | 0.00 | 60 | 1004.4 |
| 20260905193108 | 26 | 306 | 0.0 | 3.2 | 0.00 | 0.00 | 0.00 | 62 | 1004.4 |
| 20260905192116 | 27 | 324 | 1.6 | 4.8 | 0.00 | 0.00 | 0.00 | 61 | 1004.3 |
| 20260905191613 | 27 | 309 | 0.0 | 1.6 | 0.00 | 0.00 | 0.00 | 61 | 1004.5 |
| 20260905191108 | 27 | 230 | 0.0 | 4.8 | 0.00 | 0.00 | 0.00 | 61 | 1004.6 |
| 20260905190605 | 27 | 44 | 0.0 | 3.2 | 0.00 | 0.00 | 0.00 | 61 | 1004.5 |
| 20260905190101 | 26 | 149 | 3.2 | 4.8 | 0.00 | 0.00 | 0.00 | 61 | 1004.8 |
| 20260905185558 | 25 | 135 | 0.0 | 3.2 | 0.00 | 0.00 | 0.00 | 64 | 1004.6 |
| 20260905185052 | 26 | 95 | 1.6 | 4.8 | 0.00 | 0.00 | 0.00 | 64 | 1004.6 |
| 20260905184548 | 26 | 173 | 3.2 | 3.2 | 0.00 | 0.00 | 0.00 | 65 | 1004.8 |
| 20260905184044 | 26 | 154 | 1.6 | 4.8 | 0.00 | 0.00 | 0.00 | 65 | 1004.9 |
| 20260905183540 | 26 | 240 | 0.0 | 3.2 | 0.00 | 0.00 | 0.00 | 65 | 1005.1 |
| 20260905183036 | 26 | 6 | 1.6 | 1.6 | 0.00 | 0.00 | 0.00 | 66 | 1005.1 |
| 20260905182532 | 26 | 344 | 1.6 | 9.7 | 0.00 | 0.00 | 0.00 | 65 | 1004.9 |
| 20260905182028 | 26 | 130 | 0.0 | 1.6 | 0.00 | 0.00 | 0.00 | 67 | 1005.1 |
| 20260905181525 | 26 | 341 | 3.2 | 4.8 | 0.00 | 0.00 | 0.00 | 65 | 1005.3 |
| 20260905181020 | 26 | 235 | 0.0 | 1.6 | 0.00 | 0.00 | 0.00 | 66 | 1005.3 |
| 20260905181002 | 26 | 121 | 0.0 | 1.6 | 0.00 | 0.00 | 0.00 | 66 | 1005.3 |
| 20260905180012 | 26 | 7 | 0.0 | 1.6 | 0.00 | 0.00 | 0.00 | 66 | 1005.3 |
| 20260905175508 | 26 | 86 | 3.2 | 3.2 | 0.00 | 0.00 | 0.00 | 67 | 1005.3 |
| 20260905175227 | 26 | 98 | 0.0 | 3.2 | 0.00 | 0.00 | 0.00 | 66 | 1005.2 |
| 20260905174500 | 26 | 164 | 0.0 | 1.6 | 0.00 | 0.00 | 0.00 | 66 | 1005.4 |
| 20260905173957 | 26 | 128 | 1.6 | 1.6 | 0.00 | 0.00 | 0.00 | 65 | 1005.4 |
| 20260905173452 | 26 | 309 | 0.0 | 3.2 | 0.00 | 0.00 | 0.00 | 63 | 1005.5 |
| 20260905172948 | 26 | 20 | 0.0 | 3.2 | 0.00 | 0.00 | 0.00 | 61 | 1005.6 |
| 20260905172703 | 26 | 322 | 0.0 | 3.2 | 0.00 | 0.00 | 0.00 | 63 | 1005.7 |
| 20260905172201 | 26 | 15 | 3.2 | 4.8 | 0.00 | 0.00 | 0.00 | 61 | 1005.5 |
| 20260905171436 | 26 | 24 | 0.0 | 6.4 | 0.00 | 0.00 | 0.00 | 60 | 1005.6 |
| 20260905170932 | 26 | 124 | 0.0 | 3.2 | 0.00 | 0.00 | 0.00 | 62 | 1005.5 |
| 20260905170429 | 26 | 222 | 1.6 | 3.2 | 0.00 | 0.00 | 0.00 | 61 | 1005.5 |
| 20260905165924 | 26 | 132 | 0.0 | 1.6 | 0.00 | 0.00 | 0.00 | 60 | 1005.7 |
| 20260905165641 | 27 | 8 | 3.2 | 6.4 | 0.00 | 0.00 | 0.00 | 59 | 1005.8 |
| 20260905164916 | 26 | 315 | 1.6 | 6.4 | 0.00 | 0.00 | 0.00 | 60 | 1005.8 |
| 20260905164412 | 26 | 352 | 1.6 | 6.4 | 0.00 | 0.00 | 0.00 | 62 | 1005.6 |
| 20260905164127 | 26 | 329 | 3.2 | 6.4 | 0.00 | 0.00 | 0.00 | 62 | 1005.5 |
| 20260905163404 | 26 | 242 | 0.0 | 6.4 | 0.00 | 0.00 | 0.00 | 63 | 1005.8 |
| 20260905163347 | 26 | 2 | 4.8 | 6.4 | 0.00 | 0.00 | 0.00 | 62 | 1005.5 |
| 20260905162358 | 26 | 354 | 4.8 | 6.4 | 0.00 | 0.00 | 0.00 | 63 | 1005.8 |
| 20260905161852 | 26 | 19 | 0.0 | 6.4 | 0.00 | 0.00 | 0.00 | 65 | 1005.9 |
| 20260905161348 | 26 | 5 | 4.8 | 6.4 | 0.00 | 0.00 | 0.00 | 64 | 1006.1 |
| 20260905160845 | 27 | 301 | 1.6 | 6.4 | 0.00 | 0.00 | 0.00 | 62 | 1006.1 |
| 20260905160340 | 26 | 34 | 3.2 | 4.8 | 0.00 | 0.00 | 0.00 | 63 | 1006.2 |
| 20260905155836 | 26 | 294 | 3.2 | 4.8 | 0.00 | 0.00 | 0.00 | 63 | 1006.0 |
| 20260905155332 | 26 | 321 | 1.6 | 3.2 | 0.00 | 0.00 | 0.00 | 64 | 1006.0 |
| 20260905154829 | 26 | 358 | 1.6 | 3.2 | 0.00 | 0.00 | 0.00 | 64 | 1006.1 |
| 20260905154324 | 26 | 356 | 3.2 | 6.4 | 0.00 | 0.00 | 0.00 | 65 | 1006.2 |
| 20260905153821 | 26 | 224 | 0.0 | 4.8 | 0.00 | 0.00 | 0.00 | 66 | 1006.4 |
| 20260905152812 | 26 | 37 | 0.0 | 4.8 | 0.00 | 0.00 | 0.00 | 66 | 1006.5 |
| 20260905152529 | 26 | 332 | 8.0 | 9.7 | 0.00 | 0.00 | 0.00 | 64 | 1006.6 |
| 20260905151804 | 26 | 21 | 0.0 | 6.4 | 0.00 | 0.00 | 0.00 | 64 | 1006.4 |
| 20260905151301 | 26 | 21 | 3.2 | 8.0 | 0.00 | 0.00 | 0.00 | 63 | 1006.6 |
| 20260905150757 | 26 | 300 | 4.8 | 6.4 | 0.00 | 0.00 | 0.00 | 62 | 1006.4 |
| 20260905150252 | 26 | 67 | 1.6 | 8.0 | 0.00 | 0.00 | 0.00 | 62 | 1006.2 |
| 20260905145749 | 26 | 299 | 0.0 | 6.4 | 0.00 | 0.00 | 0.00 | 62 | 1006.3 |
| 20260905145244 | 26 | 307 | 1.6 | 6.4 | 0.00 | 0.00 | 0.00 | 63 | 1006.2 |
| 20260905144740 | 26 | 195 | 0.0 | 4.8 | 0.00 | 0.00 | 0.00 | 64 | 1006.1 |
| 20260905144236 | 26 | 312 | 9.7 | 9.7 | 0.00 | 0.00 | 0.00 | 63 | 1006.1 |
| 20260905143732 | 26 | 0 | 4.8 | 9.7 | 0.00 | 0.00 | 0.00 | 65 | 1006.1 |
| 20260905143228 | 26 | 15 | 3.2 | 9.7 | 0.00 | 0.00 | 0.00 | 64 | 1006.0 |
| 20260905142946 | 26 | 293 | 3.2 | 6.4 | 0.00 | 0.00 | 0.00 | 65 | 1005.7 |
| 20260905142439 | 26 | 312 | 9.7 | 9.7 | 0.00 | 0.00 | 0.00 | 64 | 1005.7 |
| 20260905141716 | 26 | 301 | 0.0 | 6.4 | 0.00 | 0.00 | 0.00 | 66 | 1005.7 |
| 20260905141433 | 25 | 18 | 1.6 | 8.0 | 0.00 | 0.00 | 0.00 | 65 | 1005.7 |
| 20260905140708 | 25 | 352 | 3.2 | 6.4 | 0.00 | 0.00 | 0.00 | 65 | 1005.8 |
| 20260905140427 | 25 | 30 | 8.0 | 9.7 | 0.00 | 0.00 | 0.00 | 67 | 1005.9 |
| 20260905135919 | 25 | 41 | 4.8 | 6.4 | 0.00 | 0.00 | 0.00 | 66 | 1005.8 |
| 20260905135157 | 26 | 57 | 6.4 | 17.7 | 0.00 | 0.00 | 0.00 | 67 | 1005.8 |
| 20260905134652 | 25 | 116 | 4.8 | 4.8 | 0.00 | 0.00 | 0.00 | 68 | 1005.9 |
| 20260905134149 | 25 | 354 | 3.2 | 6.4 | 0.00 | 0.00 | 0.00 | 70 | 1005.7 |
| 20260905133644 | 25 | 4 | 3.2 | 14.5 | 0.00 | 0.00 | 0.00 | 71 | 1005.8 |
| 20260905133141 | 25 | 46 | 1.6 | 4.8 | 0.00 | 0.00 | 0.00 | 73 | 1005.9 |
| 20260905132636 | 25 | 143 | 1.6 | 4.8 | 0.00 | 0.00 | 0.00 | 74 | 1005.8 |
| 20260905132132 | 25 | 49 | 6.4 | 17.7 | 0.00 | 0.00 | 0.00 | 74 | 1006.0 |
| 20260905131628 | 25 | 329 | 3.2 | 9.7 | 0.00 | 0.00 | 0.00 | 73 | 1005.8 |
| 20260905131124 | 25 | 272 | 3.2 | 8.0 | 0.00 | 0.00 | 0.00 | 73 | 1005.7 |
| 20260905130620 | 25 | 21 | 3.2 | 11.3 | 0.00 | 0.00 | 0.00 | 75 | 1005.7 |
| 20260905130116 | 25 | 22 | 8.0 | 9.7 | 0.00 | 0.00 | 0.00 | 76 | 1005.5 |
| 20260905125612 | 24 | 349 | 8.0 | 14.5 | 0.00 | 0.00 | 0.00 | 79 | 1005.4 |
| 20260905125109 | 24 | 334 | 4.8 | 9.7 | 0.00 | 0.00 | 0.00 | 82 | 1005.5 |
| 20260905124604 | 23 | 352 | 1.6 | 8.0 | 0.00 | 0.00 | 0.00 | 83 | 1005.4 |
| 20260905124100 | 23 | 346 | 4.8 | 9.7 | 0.00 | 0.00 | 0.00 | 84 | 1005.6 |
| 20260905123557 | 23 | 26 | 4.8 | 6.4 | 0.00 | 0.00 | 0.00 | 85 | 1005.5 |
| 20260905123314 | 23 | 70 | 6.4 | 8.0 | 0.00 | 0.00 | 0.00 | 86 | 1005.5 |